Time,TemperatureF,DewpointF,PressureIn,WindDirection,WindDirectionDegrees,WindSpeedMPH,WindSpeedGustMPH,Humidity,HourlyPrecipIn,Conditions,Clouds,dailyrainin,SoftwareType,DateUTC
2013-03-30 00:00:00,47.0,47.0,30.26,NNE,20,10.0,10.0,100,-99.99,,,-99.99,,2013-03-30 07:00:00,
2013-03-30 00:21:00,47.0,47.0,30.26,NNE,20,10.0,10.0,100,-99.99,,,-99.99,,2013-03-30 07:21:00,
2013-03-30 00:31:00,47.0,47.0,30.26,NNE,20,10.0,10.0,100,-99.99,,,-99.99,,2013-03-30 07:31:00,
2013-03-30 00:41:00,47.0,47.0,30.26,NNE,20,10.0,10.0,100,-99.99,,,-99.99,,2013-03-30 07:41:00,
2013-03-30 00:52:00,47.0,47.0,30.26,NNE,20,10.0,10.0,100,-99.99,,,-99.99,,2013-03-30 07:52:00,
2013-03-30 01:21:00,47.0,47.0,30.27,North,10,9.0,10.0,100,-99.99,,,-99.99,,2013-03-30 08:21:00,
2013-03-30 01:31:00,47.0,47.0,30.27,North,10,9.0,10.0,100,-99.99,,,-99.99,,2013-03-30 08:31:00,
2013-03-30 01:42:00,47.0,47.0,30.27,North,10,9.0,10.0,100,-99.99,,,-99.99,,2013-03-30 08:42:00,
2013-03-30 01:51:00,47.0,47.0,30.27,North,10,9.0,10.0,100,-99.99,,,-99.99,,2013-03-30 08:51:00,
2013-03-30 02:00:00,46.0,46.0,30.27,North,360,13.0,14.0,100,-99.99,,,-99.99,,2013-03-30 09:00:00,
2013-03-30 02:21:00,46.0,46.0,30.27,North,360,13.0,14.0,100,-99.99,,,-99.99,,2013-03-30 09:21:00,
2013-03-30 02:32:00,46.0,46.0,30.27,North,360,13.0,14.0,100,-99.99,,,-99.99,,2013-03-30 09:32:00,
2013-03-30 02:42:00,46.0,46.0,30.27,North,360,13.0,14.0,100,-99.99,,,-99.99,,2013-03-30 09:42:00,
2013-03-30 03:00:00,45.0,45.0,30.27,North,360,11.0,13.0,100,-99.99,,,-99.99,,2013-03-30 10:00:00,
2013-03-30 03:22:00,45.0,45.0,30.27,North,360,11.0,13.0,100,-99.99,,,-99.99,,2013-03-30 10:22:00,
2013-03-30 03:32:00,45.0,45.0,30.27,North,360,11.0,13.0,100,-99.99,,,-99.99,,2013-03-30 10:32:00,
2013-03-30 03:42:00,45.0,45.0,30.27,North,360,11.0,13.0,100,-99.99,,,-99.99,,2013-03-30 10:42:00,
2013-03-30 03:52:00,45.0,45.0,30.27,North,360,11.0,13.0,100,-99.99,,,-99.99,,2013-03-30 10:52:00,
2013-03-30 04:00:00,45.0,45.0,30.27,North,10,11.0,13.0,100,-99.99,,,-99.99,,2013-03-30 11:00:00,
2013-03-30 04:21:00,45.0,45.0,30.27,North,10,11.0,13.0,100,-99.99,,,-99.99,,2013-03-30 11:21:00,
2013-03-30 04:32:00,45.0,45.0,30.27,North,10,11.0,13.0,100,-99.99,,,-99.99,,2013-03-30 11:32:00,
2013-03-30 04:41:00,45.0,45.0,30.27,North,10,11.0,13.0,100,-99.99,,,-99.99,,2013-03-30 11:41:00,
2013-03-30 04:52:00,45.0,45.0,30.27,North,10,11.0,13.0,100,-99.99,,,-99.99,,2013-03-30 11:52:00,
2013-03-30 05:00:00,44.0,44.0,30.26,North,10,11.0,13.0,100,-99.99,,,-99.99,,2013-03-30 12:00:00,
2013-03-30 05:21:00,44.0,44.0,30.26,North,10,11.0,13.0,100,-99.99,,,-99.99,,2013-03-30 12:21:00,
2013-03-30 05:32:00,44.0,44.0,30.26,North,10,11.0,13.0,100,-99.99,,,-99.99,,2013-03-30 12:32:00,
2013-03-30 05:41:00,44.0,44.0,30.26,North,10,11.0,13.0,100,-99.99,,,-99.99,,2013-03-30 12:41:00,
2013-03-30 05:52:00,44.0,44.0,30.26,North,10,11.0,13.0,100,-99.99,,,-99.99,,2013-03-30 12:52:00,
2013-03-30 06:21:00,44.0,44.0,30.26,NNE,20,13.0,15.0,100,-99.99,,,-99.99,,2013-03-30 13:21:00,
2013-03-30 06:31:00,44.0,44.0,30.26,NNE,20,13.0,15.0,100,-99.99,,,-99.99,,2013-03-30 13:31:00,
2013-03-30 06:41:00,44.0,44.0,30.26,NNE,20,13.0,15.0,100,-99.99,,,-99.99,,2013-03-30 13:41:00,
2013-03-30 06:52:00,44.0,44.0,30.26,NNE,20,13.0,15.0,100,-99.99,,,-99.99,,2013-03-30 13:52:00,
2013-03-30 07:00:00,44.0,44.0,30.27,North,10,14.0,15.0,100,-99.99,,,-99.99,,2013-03-30 14:00:00,
2013-03-30 07:21:00,44.0,44.0,30.27,North,10,14.0,15.0,100,-99.99,,,-99.99,,2013-03-30 14:21:00,
2013-03-30 07:31:00,44.0,44.0,30.27,North,10,14.0,15.0,100,-99.99,,,-99.99,,2013-03-30 14:31:00,
2013-03-30 07:41:00,44.0,44.0,30.27,North,10,14.0,15.0,100,-99.99,,,-99.99,,2013-03-30 14:41:00,
2013-03-30 07:51:00,44.0,44.0,30.27,North,10,14.0,15.0,100,-99.99,,,-99.99,,2013-03-30 14:51:00,
2013-03-30 08:00:00,44.0,44.0,30.27,North,10,13.0,13.0,100,-99.99,,,-99.99,,2013-03-30 15:00:00,
2013-03-30 08:21:00,44.0,44.0,30.27,North,10,13.0,13.0,100,-99.99,,,-99.99,,2013-03-30 15:21:00,
2013-03-30 08:33:00,44.0,44.0,30.27,North,10,13.0,13.0,100,-99.99,,,-99.99,,2013-03-30 15:33:00,
2013-03-30 08:42:00,44.0,44.0,30.27,North,10,13.0,13.0,100,-99.99,,,-99.99,,2013-03-30 15:42:00,
2013-03-30 08:52:00,44.0,44.0,30.27,North,10,13.0,13.0,100,-99.99,,,-99.99,,2013-03-30 15:52:00,
2013-03-30 09:00:00,43.0,43.0,30.26,North,10,16.0,17.0,100,-99.99,,,-99.99,,2013-03-30 16:00:00,
2013-03-30 09:22:00,43.0,43.0,30.26,North,10,16.0,17.0,100,-99.99,,,-99.99,,2013-03-30 16:22:00,
2013-03-30 09:32:00,43.0,43.0,30.26,North,10,16.0,17.0,100,-99.99,,,-99.99,,2013-03-30 16:32:00,
2013-03-30 09:42:00,43.0,43.0,30.26,North,10,16.0,17.0,100,-99.99,,,-99.99,,2013-03-30 16:42:00,
2013-03-30 09:51:00,43.0,43.0,30.26,North,10,16.0,17.0,100,-99.99,,,-99.99,,2013-03-30 16:51:00,
2013-03-30 10:00:00,44.0,44.0,30.26,North,10,15.0,16.0,100,-99.99,,,-99.99,,2013-03-30 17:00:00,
2013-03-30 10:22:00,44.0,44.0,30.26,North,10,15.0,16.0,100,-99.99,,,-99.99,,2013-03-30 17:22:00,
2013-03-30 10:31:00,44.0,44.0,30.26,North,10,15.0,16.0,100,-99.99,,,-99.99,,2013-03-30 17:31:00,
2013-03-30 10:42:00,44.0,44.0,30.26,North,10,15.0,16.0,100,-99.99,,,-99.99,,2013-03-30 17:42:00,
2013-03-30 10:51:00,44.0,44.0,30.26,North,10,15.0,16.0,100,-99.99,,,-99.99,,2013-03-30 17:51:00,
2013-03-30 11:00:00,46.0,46.0,30.25,North,360,17.0,18.0,100,-99.99,,,-99.99,,2013-03-30 18:00:00,
2013-03-30 11:21:00,46.0,46.0,30.25,North,360,17.0,18.0,100,-99.99,,,-99.99,,2013-03-30 18:21:00,
2013-03-30 11:31:00,46.0,46.0,30.25,North,360,17.0,18.0,100,-99.99,,,-99.99,,2013-03-30 18:31:00,
2013-03-30 11:41:00,46.0,46.0,30.25,North,360,17.0,18.0,100,-99.99,,,-99.99,,2013-03-30 18:41:00,
2013-03-30 11:52:00,46.0,46.0,30.25,North,360,17.0,18.0,100,-99.99,,,-99.99,,2013-03-30 18:52:00,
2013-03-30 12:00:00,48.0,48.0,30.24,North,10,16.0,17.0,100,-99.99,,,-99.99,,2013-03-30 19:00:00,
2013-03-30 12:21:00,48.0,48.0,30.24,North,10,16.0,17.0,100,-99.99,,,-99.99,,2013-03-30 19:21:00,
2013-03-30 12:31:00,48.0,48.0,30.24,North,10,16.0,17.0,100,-99.99,,,-99.99,,2013-03-30 19:31:00,
2013-03-30 12:41:00,48.0,48.0,30.24,North,10,16.0,17.0,100,-99.99,,,-99.99,,2013-03-30 19:41:00,
2013-03-30 12:52:00,48.0,48.0,30.24,North,10,16.0,17.0,100,-99.99,,,-99.99,,2013-03-30 19:52:00,
2013-03-30 13:00:00,49.0,49.0,30.23,NE,40,15.0,16.0,100,-99.99,,,-99.99,,2013-03-30 20:00:00,
2013-03-30 13:21:00,49.0,49.0,30.23,NE,40,15.0,16.0,100,-99.99,,,-99.99,,2013-03-30 20:21:00,
2013-03-30 13:32:00,49.0,49.0,30.23,NE,40,15.0,16.0,100,-99.99,,,-99.99,,2013-03-30 20:32:00,
2013-03-30 13:42:00,49.0,49.0,30.23,NE,40,15.0,16.0,100,-99.99,,,-99.99,,2013-03-30 20:42:00,
2013-03-30 13:52:00,49.0,49.0,30.23,NE,40,15.0,16.0,100,-99.99,,,-99.99,,2013-03-30 20:52:00,
2013-03-30 14:00:00,51.0,51.0,30.21,NNE,30,16.0,17.0,100,-99.99,,,-99.99,,2013-03-30 21:00:00,
2013-03-30 14:21:00,51.0,51.0,30.21,NNE,30,16.0,17.0,100,-99.99,,,-99.99,,2013-03-30 21:21:00,
2013-03-30 14:32:00,51.0,51.0,30.21,NNE,30,16.0,17.0,100,-99.99,,,-99.99,,2013-03-30 21:32:00,
2013-03-30 14:42:00,51.0,51.0,30.21,NNE,30,16.0,17.0,100,-99.99,,,-99.99,,2013-03-30 21:42:00,
2013-03-30 14:52:00,51.0,51.0,30.21,NNE,30,16.0,17.0,100,-99.99,,,-99.99,,2013-03-30 21:52:00,
2013-03-30 15:00:00,52.0,51.0,30.19,NNE,30,16.0,17.0,98,-99.99,,,-99.99,,2013-03-30 22:00:00,
2013-03-30 15:23:00,52.0,51.0,30.19,NNE,30,16.0,17.0,98,-99.99,,,-99.99,,2013-03-30 22:23:00,
2013-03-30 15:32:00,52.0,51.0,30.19,NNE,30,16.0,17.0,98,-99.99,,,-99.99,,2013-03-30 22:32:00,
2013-03-30 15:42:00,52.0,51.0,30.19,NNE,30,16.0,17.0,98,-99.99,,,-99.99,,2013-03-30 22:42:00,
2013-03-30 15:52:00,52.0,51.0,30.19,NNE,30,16.0,17.0,98,-99.99,,,-99.99,,2013-03-30 22:52:00,
2013-03-30 16:00:00,52.0,51.0,30.16,NNE,30,14.0,15.0,95,-99.99,,,-99.99,,2013-03-30 23:00:00,
2013-03-30 16:22:00,52.0,51.0,30.16,NNE,30,14.0,15.0,95,-99.99,,,-99.99,,2013-03-30 23:22:00,
2013-03-30 16:31:00,52.0,51.0,30.16,NNE,30,14.0,15.0,95,-99.99,,,-99.99,,2013-03-30 23:31:00,
2013-03-30 16:41:00,52.0,51.0,30.16,NNE,30,14.0,15.0,95,-99.99,,,-99.99,,2013-03-30 23:41:00,
2013-03-30 16:52:00,52.0,51.0,30.16,NNE,30,14.0,15.0,95,-99.99,,,-99.99,,2013-03-30 23:52:00,
2013-03-30 17:00:00,51.0,49.0,30.14,NNE,30,15.0,16.0,93,-99.99,,,-99.99,,2013-03-31 00:00:00,
2013-03-30 17:22:00,51.0,49.0,30.14,NNE,30,15.0,16.0,93,-99.99,,,-99.99,,2013-03-31 00:22:00,
2013-03-30 17:31:00,51.0,49.0,30.14,NNE,30,15.0,16.0,93,-99.99,,,-99.99,,2013-03-31 00:31:00,
2013-03-30 17:41:00,51.0,49.0,30.14,NNE,30,15.0,16.0,93,-99.99,,,-99.99,,2013-03-31 00:41:00,
2013-03-30 17:51:00,51.0,49.0,30.14,NNE,30,15.0,16.0,93,-99.99,,,-99.99,,2013-03-31 00:51:00,
2013-03-30 18:00:00,52.0,49.0,30.12,NNE,30,16.0,17.0,89,-99.99,,,-99.99,,2013-03-31 01:00:00,
2013-03-30 18:21:00,52.0,49.0,30.12,NNE,30,16.0,17.0,89,-99.99,,,-99.99,,2013-03-31 01:21:00,
2013-03-30 18:31:00,52.0,49.0,30.12,NNE,30,16.0,17.0,89,-99.99,,,-99.99,,2013-03-31 01:31:00,
2013-03-30 18:41:00,52.0,49.0,30.12,NNE,30,16.0,17.0,89,-99.99,,,-99.99,,2013-03-31 01:41:00,
2013-03-30 18:52:00,52.0,49.0,30.12,NNE,30,16.0,17.0,89,-99.99,,,-99.99,,2013-03-31 01:52:00,
2013-03-30 19:00:00,53.0,49.0,30.11,NNE,30,15.0,16.0,87,-99.99,,,-99.99,,2013-03-31 02:00:00,
2013-03-30 19:21:00,53.0,49.0,30.11,NNE,30,15.0,16.0,87,-99.99,,,-99.99,,2013-03-31 02:21:00,
2013-03-30 19:31:00,53.0,49.0,30.11,NNE,30,15.0,16.0,87,-99.99,,,-99.99,,2013-03-31 02:31:00,
2013-03-30 19:42:00,53.0,49.0,30.11,NNE,30,15.0,16.0,87,-99.99,,,-99.99,,2013-03-31 02:42:00,
2013-03-30 19:51:00,53.0,49.0,30.11,NNE,30,15.0,16.0,87,-99.99,,,-99.99,,2013-03-31 02:51:00,
2013-03-30 20:00:00,51.0,-99.9,30.11,NNE,30,13.0,14.0,88,-99.99,,,-99.99,,2013-03-31 03:00:00,
2013-03-30 20:21:00,51.0,48.0,30.11,NNE,30,13.0,14.0,88,-99.99,,,-99.99,,2013-03-31 03:21:00,
2013-03-30 20:32:00,51.0,48.0,30.11,NNE,30,13.0,14.0,88,-99.99,,,-99.99,,2013-03-31 03:32:00,
2013-03-30 20:42:00,51.0,48.0,30.11,NNE,30,13.0,14.0,88,-99.99,,,-99.99,,2013-03-31 03:42:00,
2013-03-30 20:53:00,51.0,48.0,30.11,NNE,30,13.0,14.0,88,-99.99,,,-99.99,,2013-03-31 03:53:00,
2013-03-30 21:00:00,51.0,48.0,30.11,NNE,20,14.0,15.0,89,-99.99,,,-99.99,,2013-03-31 04:00:00,
2013-03-30 21:22:00,51.0,48.0,30.11,NNE,20,14.0,15.0,89,-99.99,,,-99.99,,2013-03-31 04:22:00,
2013-03-30 21:32:00,51.0,48.0,30.11,NNE,20,14.0,15.0,89,-99.99,,,-99.99,,2013-03-31 04:32:00,
2013-03-30 21:42:00,51.0,48.0,30.11,NNE,20,14.0,15.0,89,-99.99,,,-99.99,,2013-03-31 04:42:00,
2013-03-30 21:52:00,51.0,48.0,30.11,NNE,20,14.0,15.0,89,-99.99,,,-99.99,,2013-03-31 04:52:00,
2013-03-30 22:00:00,51.0,48.0,30.10,NNE,20,11.0,11.0,88,-99.99,,,-99.99,,2013-03-31 05:00:00,
2013-03-30 22:22:00,51.0,48.0,30.10,NNE,20,11.0,11.0,88,-99.99,,,-99.99,,2013-03-31 05:22:00,
2013-03-30 22:32:00,51.0,48.0,30.10,NNE,20,11.0,11.0,88,-99.99,,,-99.99,,2013-03-31 05:32:00,
2013-03-30 22:41:00,51.0,48.0,30.10,NNE,20,11.0,11.0,88,-99.99,,,-99.99,,2013-03-31 05:41:00,
2013-03-30 22:52:00,51.0,48.0,30.10,NNE,20,11.0,11.0,88,-99.99,,,-99.99,,2013-03-31 05:52:00,
2013-03-30 23:00:00,51.0,47.0,30.09,NNE,20,10.0,11.0,85,-99.99,,,-99.99,,2013-03-31 06:00:00,
2013-03-30 23:21:00,51.0,47.0,30.09,NNE,20,10.0,11.0,85,-99.99,,,-99.99,,2013-03-31 06:21:00,
2013-03-30 23:32:00,51.0,47.0,30.09,NNE,20,10.0,11.0,85,-99.99,,,-99.99,,2013-03-31 06:32:00,
2013-03-30 23:42:00,51.0,47.0,30.09,NNE,20,10.0,11.0,85,-99.99,,,-99.99,,2013-03-31 06:42:00,
2013-03-30 23:52:00,51.0,47.0,30.09,NNE,20,10.0,11.0,85,-99.99,,,-99.99,,2013-03-31 06:52:00,